Location: *
(44.3925°N, 5.4708°E)
Time: 13:33:10
(UTC+00:00)

H-2A R/B - Pass Details

Date: 18 September 2019
Orbit: 734 x 836 km, 98.3° (Epoch: 22 October)

Event Time Altitude Azimuth Distance (km) Brightness Sun altitude
Exits shadow 20:45:00 17° 234° (SW) 1,810 4.0 -30.7°
Maximum altitude 20:47:06 22° 268° (W) 1,587 4.0 -31.0°
Drops below altitude 10° 20:50:58 10° 318° (NW) 2,281 5.3 -31.6°
Sets 20:53:47 0° 334° (NNW) 3,227 6.2 -32.0°
